QPF
0.02 0.01 0.00 0.00 0.01 0.01 0.02 0.04 0.05 0.06 0.05 0.05 0.05 0.04 0.05 0.04 0.04 0.04 0.04 0.04 0.03 0.03 0.05 0.06 0.07 0.07 0.07 0.06 0.07 0.10 0.11 0.10 0.09 0.08 0.08 0.07 0.06 0.06 0.06 0.04 0.06 0.07 0.09
0.01 0.01 0.01 0.01 0.01 0.01 0.01 0.03 0.05 0.05 0.05 0.07 0.07 0.06 0.05 0.05 0.04 0.03 0.03 0.04 0.03 0.03 0.04 0.07 0.08 0.08 0.08 0.07 0.08 0.09 0.08 0.08 0.09 0.10 0.12 0.10 0.10 0.09 0.06 0.06 0.05 0.05 0.05
0.00 0.01 0.01 0.01 0.02 0.02 0.02 0.01 0.02 0.04 0.04 0.06 0.07 0.06 0.05 0.06 0.05 0.04 0.04 0.04 0.03 0.03 0.02 0.04 0.06 0.08 0.08 0.09 0.08 0.08 0.08 0.10 0.10 0.10 0.12 0.12 0.12 0.11 0.08 0.06 0.05 0.05 0.03
0.00 0.01 0.01 0.01 0.01 0.02 0.02 0.01 0.01 0.03 0.03 0.04 0.04 0.05 0.07 0.06 0.06 0.06 0.05 0.04 0.03 0.03 0.02 0.03 0.05 0.07 0.07 0.07 0.06 0.07 0.09 0.10 0.12 0.10 0.09 0.10 0.14 0.15 0.12 0.09 0.06 0.05 0.05
0.00 0.01 0.01 0.01 0.00 0.01 0.01 0.00 0.01 0.01 0.02 0.03 0.04 0.04 0.04 0.04 0.04 0.05 0.05 0.04 0.03 0.03 0.02 0.03 0.04 0.06 0.05 0.06 0.06 0.07 0.07 0.07 0.09 0.11 0.10 0.11 0.13 0.13 0.12 0.10 0.07 0.06 0.04
0.00 0.01 0.01 0.01 0.00 0.00 0.00 0.00 0.00 0.01 0.01 0.01 0.02 0.03 0.03 0.03 0.03 0.04 0.04 0.04 0.04 0.04 0.03 0.04 0.04 0.05 0.05 0.05 0.06 0.07 0.07 0.07 0.07 0.07 0.08 0.11 0.12 0.12 0.11 0.09 0.09 0.07 0.05
0.01 0.01 0.02 0.01 0.00 0.00 0.00 0.00 0.01 0.01 0.01 0.01 0.01 0.01 0.02 0.02 0.02 0.02 0.03 0.04 0.04 0.04 0.03 0.03 0.04 0.04 0.05 0.05 0.06 0.06 0.06 0.06 0.07 0.06 0.05 0.08 0.09 0.09 0.10 0.08 0.07 0.05 0.05
0.00 0.01 0.01 0.01 0.01 0.00 0.00 0.00 0.01 0.01 0.01 0.01 0.02 0.02 0.02 0.02 0.02 0.02 0.03 0.03 0.03 0.03 0.02 0.03 0.04 0.04 0.04 0.04 0.06 0.05 0.05 0.06 0.06 0.07 0.09 0.09 0.08 0.08 0.10 0.10 0.09 0.07 0.06
0.01 0.01 0.01 0.01 0.01 0.01 0.01 0.00 0.00 0.01 0.02 0.02 0.02 0.02 0.03 0.03 0.02 0.02 0.03 0.02 0.02 0.02 0.03 0.03 0.03 0.03 0.03 0.04 0.06 0.05 0.05 0.06 0.06 0.06 0.08 0.09 0.08 0.08 0.07 0.07 0.07 0.08 0.08
0.01 0.01 0.00 0.01 0.01 0.02 0.03 0.02 0.02 0.01 0.02 0.02 0.02 0.01 0.02 0.02 0.03 0.03 0.03 0.03 0.02 0.02 0.03 0.03 0.03 0.03 0.03 0.03 0.04 0.04 0.04 0.05 0.05 0.05 0.04 0.05 0.04 0.05 0.05 0.04 0.04 0.05 0.06
0.01 0.02 0.01 0.01 0.01 0.02 0.03 0.03 0.03 0.03 0.03 0.03 0.02 0.02 0.03 0.03 0.03 0.03 0.03 0.04 0.04 0.05 0.04 0.04 0.04 0.04 0.04 0.04 0.04 0.04 0.04 0.03 0.03 0.03 0.04 0.05 0.06 0.08 0.08 0.08 0.06 0.05 0.05
0.01 0.02 0.02 0.02 0.02 0.04 0.04 0.05 0.05 0.05 0.05 0.04 0.04 0.05 0.04 0.03 0.03 0.03 0.03 0.04 0.05 0.04 0.04 0.03 0.04 0.05 0.05 0.05 0.04 0.04 0.04 0.03 0.03 0.04 0.04 0.04 0.07 0.10 0.10 0.10 0.08 0.07 0.06
0.02 0.03 0.03 0.04 0.03 0.04 0.04 0.06 0.07 0.06 0.05 0.05 0.06 0.08 0.08 0.05 0.04 0.04 0.05 0.05 0.05 0.04 0.03 0.03 0.03 0.04 0.05 0.05 0.04 0.03 0.03 0.03 0.03 0.03 0.03 0.03 0.05 0.05 0.05 0.06 0.06 0.06 0.06
0.03 0.03 0.03 0.03 0.03 0.02 0.03 0.03 0.02 0.03 0.03 0.04 0.06 0.08 0.10 0.07 0.05 0.04 0.04 0.05 0.04 0.04 0.03 0.03 0.03 0.02 0.02 0.03 0.02 0.02 0.03 0.02 0.02 0.03 0.03 0.04 0.04 0.04 0.05 0.05 0.07 0.07 0.08
0.02 0.02 0.03 0.03 0.03 0.02 0.02 0.02 0.02 0.01 0.02 0.03 0.04 0.05 0.05 0.06 0.04 0.02 0.01 0.02 0.03 0.03 0.04 0.05 0.04 0.02 0.02 0.02 0.01 0.01 0.02 0.02 0.02 0.03 0.03 0.03 0.02 0.03 0.03 0.03 0.06 0.07 0.07
0.01 0.01 0.01 0.03 0.02 0.02 0.02 0.01 0.01 0.01 0.02 0.03 0.03 0.04 0.04 0.04 0.04 0.02 0.01 0.01 0.02 0.04 0.05 0.06 0.07 0.06 0.05 0.05 0.04 0.03 0.02 0.02 0.02 0.03 0.03 0.02 0.01 0.02 0.02 0.01 0.02 0.03 0.04
0.01 0.01 0.01 0.01 0.01 0.02 0.02 0.02 0.02 0.01 0.01 0.02 0.02 0.03 0.04 0.04 0.04 0.03 0.02 0.02 0.02 0.03 0.03 0.03 0.03 0.04 0.05 0.04 0.04 0.04 0.04 0.05 0.05 0.04 0.02 0.01 0.01 0.01 0.01 0.02 0.02 0.03 0.04
0.01 0.01 0.01 0.02 0.02 0.02 0.02 0.02 0.01 0.01 0.01 0.01 0.02 0.02 0.03 0.04 0.04 0.04 0.03 0.02 0.02 0.03 0.04 0.03 0.02 0.02 0.03 0.02 0.02 0.02 0.02 0.02 0.03 0.03 0.02 0.02 0.01 0.01 0.01 0.02 0.02 0.04 0.05
0.01 0.00 0.00 0.00 0.01 0.01 0.00 0.00 0.00 0.01 0.01 0.01 0.01 0.02 0.03 0.04 0.04 0.04 0.04 0.04 0.03 0.03 0.03 0.02 0.02 0.02 0.02 0.01 0.01 0.01 0.01 0.02 0.02 0.02 0.02 0.02 0.02 0.02 0.02 0.02 0.03 0.04 0.04
0.01 0.01 0.00 0.01 0.01 0.00 0.00 0.00 0.01 0.01 0.01 0.02 0.02 0.01 0.02 0.03 0.03 0.04 0.04 0.04 0.05 0.05 0.04 0.03 0.03 0.02 0.03 0.02 0.01 0.01 0.01 0.02 0.02 0.02 0.02 0.03 0.03 0.03 0.03 0.03 0.03 0.03 0.04
0.00 0.01 0.01 0.01 0.01 0.01 0.01 0.01 0.01 0.01 0.01 0.01 0.02 0.02 0.03 0.03 0.03 0.04 0.04 0.05 0.05 0.05 0.04 0.03 0.03 0.03 0.03 0.03 0.01 0.01 0.01 0.02 0.02 0.01 0.02 0.03 0.04 0.04 0.04 0.03 0.03 0.03 0.03
0.01 0.01 0.01 0.01 0.01 0.01 0.01 0.02 0.02 0.01 0.01 0.01 0.02 0.02 0.02 0.01 0.02 0.03 0.04 0.04 0.04 0.04 0.04 0.04 0.03 0.03 0.03 0.03 0.02 0.02 0.01 0.01 0.02 0.01 0.02 0.02 0.03 0.03 0.03 0.03 0.03 0.03 0.02
0.01 0.01 0.01 0.00 0.00 0.01 0.01 0.01 0.02 0.01 0.01 0.01 0.02 0.02 0.02 0.02 0.02 0.03 0.04 0.03 0.03 0.03 0.03 0.04 0.04 0.03 0.04 0.04 0.04 0.03 0.02 0.02 0.01 0.01 0.01 0.01 0.02 0.02 0.02 0.03 0.03 0.03 0.03
0.00 0.00 0.00 0.01 0.01 0.01 0.01 0.01 0.01 0.01 0.01 0.02 0.02 0.03 0.03 0.03 0.04 0.04 0.04 0.03 0.03 0.03 0.03 0.03 0.04 0.04 0.05 0.05 0.05 0.04 0.03 0.02 0.01 0.01 0.01 0.01 0.01 0.02 0.02 0.03 0.03 0.03 0.03
0.00 0.00 0.01 0.01 0.01 0.02 0.02 0.01 0.01 0.02 0.02 0.03 0.03 0.03 0.04 0.04 0.05 0.04 0.04 0.03 0.03 0.03 0.03 0.03 0.03 0.03 0.03 0.02 0.02 0.02 0.03 0.03 0.02 0.02 0.01 0.01 0.02 0.02 0.03 0.04 0.05 0.05 0.06
0.01 0.01 0.01 0.01 0.02 0.02 0.02 0.02 0.03 0.04 0.07 0.06 0.06 0.05 0.04 0.04 0.04 0.04 0.04 0.03 0.02 0.02 0.02 0.01 0.02 0.02 0.02 0.02 0.02 0.02 0.02 0.02 0.02 0.01 0.01 0.02 0.03 0.04 0.05 0.05 0.05 0.06 0.07
MSLP
1007.31 1007.50 1007.66 1007.78 1007.87 1007.96 1008.09 1008.29 1008.55 1008.89 1009.24 1009.58 1009.85 1009.99 1010.00 1009.87 1009.63 1009.33 1009.01 1008.74 1008.55 1008.46 1008.47 1008.55 1008.67 1008.80 1008.90 1008.97 1008.98 1008.95 1008.87 1008.75 1008.60 1008.41 1008.18 1007.89 1007.55 1007.16 1006.75 1006.34 1005.97 1005.69 1005.52
1006.70 1006.96 1007.18 1007.34 1007.46 1007.55 1007.68 1007.87 1008.14 1008.49 1008.88 1009.26 1009.57 1009.75 1009.77 1009.64 1009.37 1009.03 1008.67 1008.35 1008.13 1008.02 1008.03 1008.13 1008.28 1008.45 1008.60 1008.70 1008.74 1008.73 1008.68 1008.60 1008.48 1008.33 1008.13 1007.87 1007.54 1007.15 1006.69 1006.22 1005.75 1005.35 1005.05
1005.90 1006.27 1006.58 1006.81 1006.98 1007.10 1007.24 1007.43 1007.70 1008.05 1008.45 1008.85 1009.18 1009.39 1009.43 1009.31 1009.05 1008.70 1008.32 1007.98 1007.74 1007.61 1007.60 1007.69 1007.84 1008.01 1008.16 1008.27 1008.33 1008.35 1008.32 1008.27 1008.21 1008.12 1007.98 1007.79 1007.53 1007.18 1006.74 1006.25 1005.74 1005.25 1004.84
1004.97 1005.44 1005.87 1006.20 1006.44 1006.62 1006.78 1006.97 1007.23 1007.57 1007.96 1008.36 1008.71 1008.95 1009.03 1008.95 1008.72 1008.39 1008.02 1007.68 1007.42 1007.26 1007.22 1007.27 1007.38 1007.52 1007.64 1007.72 1007.77 1007.78 1007.77 1007.76 1007.74 1007.72 1007.68 1007.58 1007.41 1007.14 1006.77 1006.31 1005.80 1005.28 1004.79
1004.00 1004.58 1005.11 1005.55 1005.88 1006.13 1006.32 1006.52 1006.78 1007.10 1007.47 1007.86 1008.22 1008.48 1008.61 1008.58 1008.40 1008.12 1007.79 1007.46 1007.19 1007.00 1006.91 1006.90 1006.94 1007.00 1007.05 1007.08 1007.08 1007.07 1007.05 1007.06 1007.09 1007.13 1007.17 1007.17 1007.10 1006.93 1006.65 1006.26 1005.78 1005.26 1004.74
1003.12 1003.78 1004.41 1004.96 1005.38 1005.69 1005.93 1006.14 1006.38 1006.68 1007.03 1007.40 1007.76 1008.04 1008.22 1008.25 1008.14 1007.92 1007.64 1007.34 1007.07 1006.85 1006.70 1006.61 1006.55 1006.52 1006.47 1006.42 1006.35 1006.29 1006.24 1006.24 1006.29 1006.37 1006.46 1006.53 1006.55 1006.47 1006.27 1005.96 1005.54 1005.04 1004.51
1002.45 1003.16 1003.88 1004.51 1005.02 1005.39 1005.67 1005.89 1006.12 1006.38 1006.70 1007.05 1007.40 1007.70 1007.91 1008.00 1007.96 1007.81 1007.58 1007.31 1007.04 1006.79 1006.59 1006.41 1006.26 1006.12 1005.98 1005.83 1005.67 1005.54 1005.45 1005.41 1005.44 1005.51 1005.62 1005.72 1005.78 1005.75 1005.62 1005.36 1004.98 1004.52 1004.00
1002.08 1002.83 1003.60 1004.30 1004.87 1005.29 1005.60 1005.83 1006.04 1006.27 1006.55 1006.86 1007.19 1007.49 1007.73 1007.86 1007.88 1007.79 1007.62 1007.38 1007.12 1006.85 1006.59 1006.35 1006.11 1005.87 1005.63 1005.39 1005.16 1004.96 1004.80 1004.71 1004.68 1004.71 1004.78 1004.85 1004.89 1004.86 1004.73 1004.49 1004.14 1003.69 1003.19
1002.07 1002.83 1003.63 1004.36 1004.97 1005.43 1005.75 1005.98 1006.18 1006.38 1006.61 1006.89 1007.18 1007.47 1007.71 1007.87 1007.92 1007.88 1007.75 1007.54 1007.29 1007.01 1006.72 1006.42 1006.12 1005.82 1005.51 1005.20 1004.91 1004.64 1004.42 1004.25 1004.15 1004.10 1004.09 1004.08 1004.04 1003.95 1003.77 1003.49 1003.12 1002.66 1002.15
1002.38 1003.15 1003.95 1004.69 1005.31 1005.78 1006.11 1006.35 1006.53 1006.70 1006.90 1007.13 1007.39 1007.64 1007.86 1008.02 1008.10 1008.08 1007.97 1007.79 1007.55 1007.27 1006.97 1006.66 1006.33 1005.99 1005.65 1005.31 1004.98 1004.67 1004.39 1004.16 1003.98 1003.83 1003.70 1003.57 1003.41 1003.19 1002.91 1002.55 1002.11 1001.61 1001.07
1002.94 1003.70 1004.49 1005.21 1005.83 1006.29 1006.63 1006.87 1007.04 1007.20 1007.37 1007.56 1007.78 1007.99 1008.19 1008.33 1008.40 1008.38 1008.29 1008.12 1007.90 1007.64 1007.35 1007.04 1006.71 1006.38 1006.04 1005.70 1005.37 1005.05 1004.75 1004.47 1004.21 1003.96 1003.72 1003.45 1003.14 1002.78 1002.36 1001.87 1001.33 1000.76 1000.18
1003.63 1004.37 1005.12 1005.81 1006.40 1006.86 1007.19 1007.44 1007.62 1007.78 1007.93 1008.11 1008.29 1008.47 1008.63 1008.74 1008.79 1008.77 1008.68 1008.52 1008.32 1008.08 1007.81 1007.52 1007.23 1006.93 1006.62 1006.31 1006.00 1005.70 1005.40 1005.10 1004.80 1004.48 1004.13 1003.74 1003.30 1002.79 1002.23 1001.61 1000.96 1000.30 999.66
1004.32 1005.03 1005.73 1006.36 1006.91 1007.35 1007.69 1007.95 1008.16 1008.34 1008.51 1008.68 1008.85 1009.00 1009.13 1009.21 1009.23 1009.19 1009.10 1008.95 1008.77 1008.55 1008.31 1008.06 1007.81 1007.55 1007.28 1007.02 1006.76 1006.49 1006.22 1005.93 1005.61 1005.26 1004.85 1004.38 1003.83 1003.21 1002.53 1001.80 1001.05 1000.31 999.61
1004.92 1005.58 1006.20 1006.78 1007.27 1007.69 1008.04 1008.33 1008.57 1008.80 1009.00 1009.19 1009.36 1009.51 1009.61 1009.67 1009.67 1009.61 1009.51 1009.37 1009.20 1009.00 1008.80 1008.58 1008.36 1008.14 1007.92 1007.70 1007.48 1007.26 1007.03 1006.77 1006.47 1006.12 1005.71 1005.21 1004.61 1003.94 1003.19 1002.39 1001.57 1000.78 1000.04
1005.37 1005.96 1006.51 1007.00 1007.45 1007.84 1008.20 1008.52 1008.82 1009.10 1009.36 1009.59 1009.78 1009.92 1010.02 1010.06 1010.04 1009.97 1009.87 1009.73 1009.57 1009.39 1009.21 1009.01 1008.82 1008.62 1008.43 1008.23 1008.05 1007.86 1007.67 1007.45 1007.21 1006.90 1006.52 1006.04 1005.47 1004.80 1004.04 1003.23 1002.40 1001.59 1000.84
1005.67 1006.18 1006.64 1007.05 1007.44 1007.82 1008.18 1008.54 1008.90 1009.24 1009.56 1009.83 1010.05 1010.21 1010.31 1010.34 1010.31 1010.23 1010.13 1009.99 1009.84 1009.68 1009.51 1009.32 1009.13 1008.94 1008.74 1008.55 1008.38 1008.21 1008.04 1007.87 1007.68 1007.44 1007.12 1006.72 1006.22 1005.61 1004.90 1004.13 1003.34 1002.55 1001.83
1005.83 1006.27 1006.64 1006.99 1007.33 1007.68 1008.06 1008.46 1008.86 1009.26 1009.63 1009.95 1010.20 1010.37 1010.46 1010.49 1010.45 1010.38 1010.27 1010.14 1010.00 1009.85 1009.68 1009.50 1009.30 1009.09 1008.87 1008.66 1008.47 1008.29 1008.13 1007.99 1007.84 1007.67 1007.44 1007.14 1006.73 1006.23 1005.62 1004.94 1004.21 1003.49 1002.81
1005.89 1006.27 1006.58 1006.87 1007.18 1007.52 1007.91 1008.34 1008.79 1009.23 1009.64 1009.98 1010.25 1010.42 1010.51 1010.53 1010.48 1010.40 1010.30 1010.18 1010.05 1009.91 1009.75 1009.56 1009.35 1009.12 1008.87 1008.62 1008.38 1008.18 1008.01 1007.87 1007.75 1007.63 1007.48 1007.27 1006.97 1006.58 1006.09 1005.52 1004.89 1004.25 1003.64
1005.89 1006.23 1006.51 1006.78 1007.07 1007.42 1007.82 1008.27 1008.74 1009.21 1009.63 1009.99 1010.25 1010.41 1010.48 1010.48 1010.42 1010.33 1010.23 1010.12 1010.01 1009.89 1009.75 1009.57 1009.35 1009.10 1008.82 1008.53 1008.25 1008.01 1007.80 1007.64 1007.53 1007.43 1007.33 1007.19 1006.99 1006.70 1006.32 1005.85 1005.32 1004.77 1004.22
1005.83 1006.17 1006.46 1006.73 1007.04 1007.39 1007.81 1008.28 1008.77 1009.24 1009.66 1010.00 1010.24 1010.38 1010.42 1010.39 1010.31 1010.21 1010.11 1010.02 1009.93 1009.83 1009.72 1009.57 1009.37 1009.12 1008.83 1008.51 1008.20 1007.91 1007.66 1007.46 1007.32 1007.22 1007.13 1007.03 1006.88 1006.66 1006.36 1005.98 1005.54 1005.06 1004.57
1005.70 1006.08 1006.41 1006.72 1007.05 1007.44 1007.88 1008.36 1008.85 1009.32 1009.72 1010.03 1010.24 1010.34 1010.34 1010.27 1010.17 1010.05 1009.95 1009.87 1009.81 1009.76 1009.69 1009.59 1009.43 1009.21 1008.94 1008.63 1008.30 1007.97 1007.68 1007.44 1007.25 1007.11 1007.00 1006.89 1006.76 1006.57 1006.32 1006.00 1005.61 1005.18 1004.74
1005.51 1005.95 1006.33 1006.69 1007.07 1007.49 1007.96 1008.45 1008.95 1009.40 1009.78 1010.06 1010.23 1010.28 1010.25 1010.14 1010.01 1009.88 1009.78 1009.71 1009.69 1009.68 1009.67 1009.63 1009.54 1009.38 1009.16 1008.88 1008.56 1008.22 1007.90 1007.62 1007.38 1007.18 1007.01 1006.87 1006.71 1006.52 1006.27 1005.98 1005.62 1005.23 1004.82
1005.27 1005.76 1006.20 1006.62 1007.04 1007.50 1007.99 1008.49 1008.98 1009.42 1009.79 1010.04 1010.17 1010.20 1010.13 1009.99 1009.83 1009.69 1009.59 1009.53 1009.53 1009.57 1009.62 1009.66 1009.65 1009.57 1009.42 1009.20 1008.92 1008.61 1008.27 1007.95 1007.66 1007.40 1007.17 1006.95 1006.75 1006.52 1006.27 1005.98 1005.64 1005.27 1004.89
1005.01 1005.55 1006.03 1006.48 1006.93 1007.41 1007.91 1008.42 1008.90 1009.34 1009.68 1009.92 1010.04 1010.04 1009.95 1009.80 1009.63 1009.47 1009.36 1009.31 1009.33 1009.41 1009.51 1009.62 1009.70 1009.71 1009.65 1009.51 1009.29 1009.01 1008.68 1008.34 1008.00 1007.68 1007.39 1007.11 1006.84 1006.58 1006.30 1006.01 1005.69 1005.35 1004.99
1004.81 1005.35 1005.83 1006.29 1006.75 1007.22 1007.71 1008.21 1008.68 1009.11 1009.45 1009.68 1009.80 1009.81 1009.72 1009.56 1009.38 1009.22 1009.10 1009.05 1009.08 1009.17 1009.32 1009.48 1009.62 1009.72 1009.74 1009.68 1009.52 1009.29 1008.99 1008.65 1008.29 1007.93 1007.57 1007.24 1006.93 1006.63 1006.34 1006.05 1005.75 1005.45 1005.14
1004.74 1005.25 1005.70 1006.12 1006.54 1006.97 1007.43 1007.89 1008.34 1008.75 1009.08 1009.33 1009.46 1009.48 1009.41 1009.27 1009.09 1008.93 1008.80 1008.74 1008.76 1008.85 1009.01 1009.19 1009.38 1009.54 1009.63 1009.63 1009.54 1009.36 1009.10 1008.77 1008.40 1008.02 1007.63 1007.27 1006.92 1006.61 1006.32 1006.06 1005.81 1005.56 1005.31
Thickness
5829 5828 5827 5825 5820 5815 5811 5807 5803 5801 5798 5795 5791 5788 5787 5787 5787 5786 5784 5783 5781 5780 5779 5776 5775 5774 5771 5769 5768 5766 5765 5764 5766 5763 5761 5766 5770 5770 5769 5767 5765 5763 5761
5826 5825 5824 5823 5818 5813 5809 5806 5802 5800 5797 5795 5793 5791 5788 5787 5786 5785 5783 5782 5780 5779 5778 5774 5772 5771 5769 5767 5766 5764 5761 5761 5763 5758 5752 5751 5755 5761 5767 5765 5762 5761 5760
5825 5823 5822 5820 5817 5813 5809 5806 5802 5799 5796 5795 5792 5790 5787 5784 5782 5780 5780 5779 5778 5777 5775 5773 5771 5769 5767 5765 5763 5762 5759 5756 5759 5759 5752 5744 5741 5748 5756 5759 5760 5758 5757
5831 5826 5822 5818 5816 5814 5811 5806 5802 5798 5796 5794 5789 5785 5781 5777 5778 5778 5778 5777 5777 5775 5773 5771 5769 5767 5765 5763 5762 5762 5760 5756 5753 5755 5756 5753 5748 5740 5741 5749 5754 5755 5753
5833 5828 5824 5820 5818 5817 5813 5807 5801 5797 5795 5792 5788 5784 5780 5779 5779 5778 5775 5774 5774 5773 5771 5769 5767 5764 5762 5761 5760 5759 5757 5755 5752 5751 5752 5750 5748 5745 5737 5736 5743 5747 5750
5834 5829 5826 5821 5818 5816 5813 5807 5800 5796 5793 5790 5787 5783 5779 5777 5774 5772 5770 5770 5770 5770 5768 5766 5763 5761 5759 5758 5757 5756 5754 5753 5752 5750 5749 5746 5743 5740 5738 5735 5736 5738 5743
5832 5827 5822 5817 5814 5812 5809 5805 5799 5794 5792 5788 5785 5782 5779 5776 5772 5770 5768 5767 5766 5765 5764 5763 5760 5758 5756 5755 5754 5753 5751 5750 5748 5746 5745 5744 5743 5743 5739 5735 5734 5734 5738
5831 5826 5822 5818 5814 5810 5807 5803 5796 5792 5789 5786 5783 5781 5778 5775 5772 5770 5768 5765 5764 5763 5762 5760 5757 5755 5754 5753 5751 5749 5748 5747 5745 5744 5742 5740 5740 5740 5738 5735 5731 5727 5729
5829 5824 5821 5817 5813 5809 5805 5802 5796 5791 5788 5785 5782 5779 5777 5773 5771 5769 5766 5764 5762 5761 5759 5757 5754 5752 5750 5749 5747 5744 5743 5742 5740 5739 5738 5736 5736 5736 5736 5735 5732 5724 5718
5826 5821 5818 5815 5811 5809 5805 5802 5796 5790 5787 5784 5780 5778 5774 5772 5769 5767 5763 5761 5759 5757 5754 5752 5750 5748 5746 5745 5743 5740 5738 5736 5735 5734 5732 5730 5730 5730 5730 5729 5729 5727 5720
5822 5818 5816 5813 5810 5806 5802 5798 5794 5789 5786 5782 5779 5776 5773 5770 5767 5763 5761 5758 5756 5753 5750 5748 5745 5743 5741 5740 5737 5735 5733 5731 5729 5728 5726 5724 5724 5723 5724 5723 5722 5721 5718
5820 5817 5813 5809 5805 5801 5797 5793 5790 5786 5783 5780 5776 5772 5769 5766 5763 5759 5757 5755 5752 5749 5746 5744 5741 5738 5736 5734 5731 5728 5726 5724 5722 5721 5719 5718 5718 5716 5716 5715 5714 5713 5713
5815 5813 5808 5803 5799 5796 5792 5789 5786 5783 5780 5776 5772 5767 5763 5760 5757 5754 5752 5749 5746 5743 5740 5738 5735 5732 5730 5728 5725 5723 5720 5718 5716 5715 5713 5711 5710 5708 5707 5707 5706 5707 5708
5807 5805 5800 5796 5794 5791 5787 5785 5782 5779 5776 5771 5767 5762 5758 5755 5752 5750 5747 5744 5741 5737 5734 5732 5730 5727 5725 5722 5719 5717 5715 5713 5711 5709 5707 5706 5703 5701 5700 5700 5699 5700 5698
5798 5796 5793 5790 5788 5785 5782 5780 5777 5774 5771 5765 5761 5757 5755 5751 5748 5745 5742 5739 5736 5733 5730 5728 5725 5722 5719 5716 5712 5710 5709 5706 5704 5703 5702 5700 5698 5696 5693 5693 5691 5691 5689
5794 5792 5790 5786 5782 5779 5777 5774 5771 5768 5765 5760 5756 5753 5750 5746 5742 5739 5737 5733 5730 5727 5725 5722 5719 5716 5713 5708 5705 5703 5702 5700 5697 5696 5695 5694 5692 5689 5686 5685 5684 5683 5682
5789 5786 5784 5781 5778 5775 5772 5768 5766 5763 5759 5754 5751 5748 5745 5741 5738 5735 5731 5728 5725 5722 5718 5716 5712 5709 5705 5701 5698 5696 5694 5693 5692 5690 5688 5688 5687 5683 5680 5678 5677 5676 5676
5782 5780 5778 5776 5774 5771 5767 5764 5761 5757 5752 5748 5745 5742 5739 5736 5733 5729 5725 5722 5720 5716 5713 5710 5708 5704 5700 5696 5693 5690 5688 5688 5687 5685 5682 5680 5677 5675 5672 5671 5670 5669 5668
5776 5775 5774 5771 5767 5764 5761 5757 5753 5750 5745 5741 5738 5736 5733 5729 5726 5723 5720 5717 5714 5710 5708 5705 5703 5699 5695 5691 5687 5683 5682 5681 5681 5680 5677 5674 5670 5668 5665 5663 5662 5661 5660
5771 5768 5766 5763 5758 5754 5753 5748 5744 5740 5736 5735 5733 5731 5728 5725 5721 5718 5715 5713 5709 5705 5702 5700 5698 5695 5691 5686 5681 5677 5676 5675 5674 5673 5671 5668 5664 5661 5658 5656 5654 5652 5652
5763 5761 5757 5752 5748 5747 5744 5738 5735 5732 5731 5730 5727 5724 5722 5720 5718 5714 5711 5707 5704 5700 5697 5695 5693 5690 5686 5681 5676 5671 5669 5668 5666 5666 5664 5661 5657 5654 5652 5650 5648 5647 5646
5752 5750 5745 5742 5740 5739 5735 5729 5726 5726 5725 5722 5719 5717 5715 5714 5714 5708 5704 5702 5698 5694 5691 5688 5685 5684 5681 5677 5671 5666 5662 5660 5658 5658 5657 5654 5650 5648 5646 5644 5643 5641 5639
5743 5741 5737 5733 5732 5730 5727 5721 5720 5719 5717 5714 5711 5709 5709 5707 5706 5702 5698 5695 5691 5687 5684 5681 5678 5677 5675 5670 5665 5660 5657 5654 5651 5650 5649 5646 5643 5641 5640 5639 5637 5634 5632
5733 5731 5728 5724 5721 5720 5718 5715 5713 5712 5708 5705 5703 5702 5700 5699 5698 5695 5692 5688 5685 5681 5677 5675 5672 5670 5666 5661 5656 5653 5650 5647 5643 5641 5640 5638 5637 5635 5634 5633 5631 5629 5628
5723 5722 5718 5714 5712 5711 5709 5707 5705 5702 5699 5696 5695 5694 5693 5691 5689 5687 5683 5680 5677 5673 5669 5667 5665 5661 5657 5653 5648 5645 5642 5640 5635 5631 5631 5630 5629 5628 5627 5627 5627 5625 5623
5714 5711 5708 5705 5703 5701 5698 5698 5696 5693 5689 5687 5686 5686 5685 5684 5682 5679 5674 5671 5668 5665 5662 5659 5656 5654 5650 5645 5641 5637 5633 5630 5626 5623 5623 5622 5621 5620 5620 5620 5619 5618 5617